STARLINK-2533, 48294

Orbit data source: Space-Track

STARLINK-2533, 48294 is a payload satellite owned by SpaceX/Seattle (US) in LEO that was launched on Thu, 29 Apr 2021 UTC via an FALCON 9 launch vehicle from the Air Force Eastern Test Range (AFETR). Payload-class satellites include a variety of spacecraft equipped with specific instruments for various scientific and technological missions. These include communications satellites like Starlink; space stations such as the ISS; scientific satellites like the Hubble; Earth observation satellites from companies like Planet Labs, Umbra, and HawkEye 360; GPS; miniature CubeSats for education and research; and military/defense satellites.

Loading next visibility...
Identifier
48294, 2021-036U
Orbit
LEO
Country
Flag of USUS
Related business
Manufacturer
SpaceX/Seattle
Mission
Operational Commercial Communications
Bus & Motor
STARLINK, Unknown motor
Mass
260 kg wet, ~248 kg dry
Launch date (UTC)
2021-04-29 (4 years ago)
Launch vehicle
FALCON 9
Launch site
Air Force Eastern Test Range (AFETR)
Object type
Payload
Rocket body
Debris
Shape & HBR
Box + 1 Pan, 10.1 m
Radar Cross Section
13.562 m², Large (>1 m²)

Expand to show TLE details & history
Last TLE update: 15 hours ago

TLE from 15 hours ago
0 STARLINK-2533
1 48294U 21036U   25290.91210535  .00001019  00000-0  87243-4 0  9992
2 48294  53.0558   2.5709 0001329  75.1445 284.9692 15.06414461246799
Epoch: 2025-10-17T21:53Z
TLE epoch observation values (Epoch: 2025-10-17T21:53:25.902Z)
Latitude
0.00006°
Longitude
7.56235°
Altitude
547.809 km
Speed
7.589 km/s
True Right ascension
00h 10m 17s
True Declination
0° 00' 00"
Sunlit
Object was in full shadow at epoch
Visualization orbit readout
Latitude
Unknown
Longitude
Unknown
Altitude
Unknown
Speed
Unknown
Apparent Right ascension
Unknown
Apparent Declination
Unknown
Sunlit
N/A
Visualization observer readout
Local Sidereal Time
07:49:04
Azimuth
Unknown
Elevation
Unknown
Doppler factor
Unknown
Orbital elements
Apogee altitude
548.358 km
Perigee altitude
546.517 km
Semi-major axis
6,925.575 km
Eccentricity
0.00013
Inclination
53.0558°
RAAN
2.5709°
Arg. of periapsis
75.1445°
True anomaly
284.95449°
Mean anomaly
284.9692°
Eccentric anomaly
284.96184°
Mean motion
3.76582 °/min
Orbital period
95.6 mins
BSTAR
0.000087243
Loading maneuver chart data...
Computing Atmospheric mass density...
Loading historical data...
Loading historical data...
Loading historical data...
Loading historical data...
Loading historical data...
Loading historical data...
Loading historical data...

Documentation

Showing up to 5 results
|